[[{"header":{"parameterUnit":"m.s-1","parameterCategory":1,"la1":30.2991,"la2":30.254,"lo1":-89.0895,"lo2":-89.0444,"dy":0.0017,"dx":0.0017,"nx":28,"ny":28,"refTime":"2024-09-02T09:00:00:Z","depth":0,"parameterNumber":2,"parameterNumberName":"U-component_of_WINDS"},"data":[0,0,0,0,0,0,0,0,0,0,0,0,0,0,0,0,0,0,0,0,0,0,0,0,0,0,0,0,0,0,0,0,0,0,0,0,0,0,0,0,0,0,0,0,0,0,0,0,0,0,0,0,0,0,0,0,0,0,-3.1659,-3.1659,0,-3.1641,-3.1641,-3.1641,-3.1567,-3.1565,-3.1564,-3.1562,-3.1545,-3.1546,-3.1547,0,0,0,0,0,0,0,0,0,0,0,0,0,-3.1632,-3.1633,-3.1659,-3.1659,-3.1659,-3.1641,-3.1641,-3.164,-3.1567,-3.1565,-3.1563,-3.1561,-3.1544,-3.1546,-3.1547,0,0,0,0,0,0,0,0,0,0,0,0,0,-3.1632,-3.1634,-3.1659,-3.162,-3.1616,-3.1641,-3.1641,-3.164,-3.1568,-3.1565,-3.1563,-3.156,-3.1544,-3.1545,-3.1547,-3.1609,0,0,-3.1552,-3.1553,0,0,0,0,0,0,0,0,-3.1632,-3.1633,-3.1626,-3.1623,-3.1619,-3.1604,-3.1625,-3.163,-3.1568,-3.1586,-3.1562,-3.1559,-3.1566,-3.1566,-3.1568,-3.1608,-3.1607,-3.1552,-3.1553,-3.1554,-3.1555,0,0,0,0,0,0,0,-3.1632,-3.1634,-3.1652,-3.1626,-3.1622,-3.1604,-3.1601,-3.1625,-3.1591,-3.1584,-3.1579,-3.1578,-3.1564,-3.1567,-3.1567,-3.1607,-3.1552,-3.1554,-3.1555,-3.1556,-3.1697,-3.17,0,0,0,0,0,0,-3.1638,-3.1634,-3.1653,-3.1651,-3.1619,-3.1607,-3.1603,-3.1611,-3.159,-3.1585,-3.158,-3.1574,-3.1565,-3.1565,-3.1566,-3.1638,-3.1554,-3.1556,-3.1557,-3.1694,-3.1698,-3.17,0,0,0,0,0,0,-3.1638,-3.164,-3.1653,-3.1641,-3.1642,-3.161,-3.1619,-3.1612,-3.1615,-3.1587,-3.1581,-3.1589,-3.1563,-3.1564,-3.1599,-3.1636,-3.1556,-3.1558,-3.1691,-3.1695,-3.1699,-3.1781,0,0,0,0,0,0,-3.1637,-3.164,-3.1663,-3.1642,-3.1643,-3.1686,-3.1621,-3.1614,-3.1618,-3.161,-3.1594,-3.1589,-3.1561,-3.1597,-3.16,-3.1637,-3.1559,-3.1687,-3.1693,-3.1698,-3.1775,-3.1787,-3.1798,0,0,0,0,0,-3.1636,-3.1687,-3.1665,-3.1667,-3.167,-3.1688,-3.1688,-3.1655,-3.1621,-3.1644,-3.1626,-3.1589,-3.1631,-3.1601,-3.1604,-3.1642,-3.1685,-3.1691,-3.1697,-3.177,-3.1785,-3.1798,0,0,0,0,0,0,-3.1713,-3.1683,-3.1658,-3.1704,-3.1699,-3.1676,-3.1703,-3.1672,-3.1677,-3.167,-3.1629,-3.1626,-3.1667,-3.1658,-3.1624,-3.1701,-3.1652,-3.1659,-3.1706,-3.172,-3.1732,-3.1733,-3.1561,0,0,0,0,0,-3.1735,-3.1752,-3.1725,-3.1768,-3.1767,-3.1736,-3.1742,-3.1717,-3.1711,-3.1708,-3.1693,-3.1689,-3.1701,-3.171,-3.1719,-3.1773,-3.1769,-3.1801,-3.1812,-3.1822,-3.1829,-3.1858,-3.1872,-3.1721,-3.1721,-3.1721,0,0,-3.1781,-3.1767,-3.178,-3.1783,-3.1776,-3.1795,-3.1734,-3.1756,-3.177,-3.1712,-3.1744,-3.1733,-3.1725,-3.177,-3.1789,-3.1763,-3.187,-3.183,-3.1838,-3.184,-3.1866,-3.188,-3.1893,-3.1725,-3.1724,-3.1724,0,0,-3.1875,-3.1865,-3.19,-3.1895,-3.1886,-3.1865,-3.1873,-3.1855,-3.1845,-3.1876,-3.1833,-3.1849,-3.1871,-3.1868,-3.1869,-3.1962,-3.1929,-3.1967,-3.2028,-3.2056,-3.2068,-3.2079,-3.2113,-3.2126,-3.1973,-3.1974,-3.1974,0,-3.1933,-3.1959,-3.1922,-3.1948,-3.1951,-3.1898,-3.1934,-3.193,-3.1925,-3.1929,-3.19,-3.1927,-3.1918,-3.1962,-3.1985,-3.1987,-3.1996,-3.1969,-3.207,-3.208,-3.2089,-3.2121,-3.2134,-3.1978,-3.1978,-3.1977,-3.1977,0,-3.2033,-3.2051,-3.2081,-3.2077,-3.2083,-3.2113,-3.2082,-3.2092,-3.2067,-3.2049,-3.2083,-3.207,-3.2077,-3.2085,-3.2061,-3.2126,-3.2111,-3.2077,-3.2027,-3.2109,-3.2138,-3.215,-3.1985,-3.1983,-3.1982,-3.1981,0,0,-3.2174,-3.215,-3.2161,-3.2159,-3.2145,-3.2159,-3.2188,-3.2194,-3.2205,-3.2203,-3.2226,-3.2246,-3.2215,-3.2216,-3.2191,-3.2216,-3.2292,-3.2178,-3.2178,-3.2201,-3.2365,-3.2391,-3.2406,-3.227,-3.2272,-3.2274,-3.2366,0,-3.2264,-3.2311,-3.2279,-3.2331,-3.2349,-3.23,-3.2324,-3.2319,-3.2304,-3.2317,-3.23,-3.2315,-3.2272,-3.2272,-3.2295,-3.2278,-3.2325,-3.2271,-3.2292,-3.2293,-3.2297,-3.2422,-3.2449,-3.2537,-3.2377,-3.2379,-3.238,0,-3.2375,-3.2379,-3.2433,-3.2416,-3.2423,-3.2446,-3.2449,-3.2462,-3.2455,-3.2442,-3.2445,-3.2413,-3.244,-3.2391,-3.2429,-3.2393,-3.24,-3.2393,-3.2396,-3.2397,-3.2343,-3.2427,-3.2564,-3.2578,-3.2398,-3.2397,-3.2395,0,-3.2475,-3.2493,-3.2528,-3.2527,-3.2508,-3.2526,-3.2519,-3.251,-3.2516,-3.2519,-3.2523,-3.253,-3.2534,-3.254,-3.2512,-3.2478,-3.2554,-3.2502,-3.2545,-3.2546,-3.2564,-3.2563,-3.2705,-3.2567,-3.2567,-3.2566,-3.2566,0,-3.2579,-3.2615,-3.2572,-3.2594,-3.2632,-3.2595,-3.2635,-3.2622,-3.2615,-3.2634,-3.2592,-3.2611,-3.2571,-3.2586,-3.2564,-3.26,-3.2601,-3.2593,-3.2586,-3.2597,-3.2598,-3.2601,-3.2595,-3.257,-3.2569,-3.2568,-3.2568,0,-3.2697,-3.267,-3.2705,-3.2684,-3.268,-3.271,-3.2692,-3.2712,-3.2693,-3.2718,-3.2722,-3.2694,-3.2709,-3.2681,-3.2693,-3.2678,-3.2729,-3.2713,-3.2731,-3.2727,-3.2772,-3.2769,-3.2921,-3.294,-3.2789,-3.2791,-3.2792,0,-3.2766,-3.2792,-3.2775,-3.2784,-3.278,-3.2795,-3.2802,-3.2766,-3.2775,-3.2769,-3.279,-3.2802,-3.281,-3.2838,-3.2819,-3.2828,-3.2813,-3.2865,-3.2814,-3.2824,-3.2815,-3.2814,-3.2817,-3.2876,-3.2878,-3.288,-3.2881,0,-3.2892,-3.2877,-3.2887,-3.2893,-3.2902,-3.2905,-3.2905,-3.2915,-3.2878,-3.2889,-3.2905,-3.2911,-3.2924,-3.2937,-3.2942,-3.2935,-3.2903,-3.2897,-3.2908,-3.2919,-3.2929,-3.2926,-3.2761,-3.2894,-3.2893,-3.2892,-3.2891,-3.289,-3.2988,-3.3009,-3.3,-3.3013,-3.301,-3.3011,-3.3029,-3.3013,-3.3025,-3.3032,-3.301,-3.3031,-3.3025,-3.3028,-3.3025,-3.3042,-3.3018,-3.3033,-3.3037,-3.3042,-3.305,-3.2926,-3.3042,-3.3042,-3.3041,-3.3041,-3.3041,0,-3.3112,-3.3104,-3.3116,-3.3118,-3.3129,-3.3096,-3.3095,-3.3106,-3.3125,-3.3121,-3.313,-3.3148,-3.3161,-3.3143,-3.3153,-3.317,-3.3155,-3.3173,-3.3172,-3.3172,-3.307,-3.306,-3.3185,-3.3185,-3.3185,-3.3185,-3.3185,-3.3185,-3.3178,-3.3213,-3.3197,-3.323,-3.3222,-3.3242,-3.3244,-3.3245,-3.3242,-3.3265,-3.3275,-3.3263,-3.3254,-3.3263,-3.3273,-3.3268,-3.3274,-3.3298,-3.3287,-3.3193,-3.3179,-3.3165,-3.3156,-3.3299,-3.3299,-3.3388,-3.3389,-3.339]},{"header":{"parameterUnit":"m.s-1","parameterCategory":1,"la1":30.2991,"la2":30.254,"lo1":-89.0895,"lo2":-89.0444,"dy":0.0017,"dx":0.0017,"nx":28,"ny":28,"refTime":"2024-09-02T09:00:00:Z","depth":0,"parameterNumber":3,"parameterNumberName":"V-component_of_WINDS"},"data":[0,0,0,0,0,0,0,0,0,0,0,0,0,0,0,0,0,0,0,0,0,0,0,0,0,0,0,0,0,0,0,0,0,0,0,0,0,0,0,0,0,0,0,0,0,0,0,0,0,0,0,0,0,0,0,0,0,0,-1.8957,-1.8957,0,-1.894,-1.894,-1.894,-1.8908,-1.8908,-1.8907,-1.8906,-1.889,-1.889,-1.889,0,0,0,0,0,0,0,0,0,0,0,0,0,-1.8961,-1.8961,-1.8957,-1.8957,-1.8956,-1.894,-1.894,-1.894,-1.8908,-1.8907,-1.8907,-1.8906,-1.8889,-1.889,-1.889,0,0,0,0,0,0,0,0,0,0,0,0,0,-1.8953,-1.8961,-1.8957,-1.8939,-1.8937,-1.894,-1.894,-1.894,-1.8908,-1.8907,-1.8907,-1.8906,-1.8889,-1.889,-1.889,-1.891,0,0,-1.889,-1.8891,0,0,0,0,0,0,0,0,-1.8954,-1.8953,-1.8942,-1.894,-1.8938,-1.8925,-1.8935,-1.893,-1.8909,-1.8919,-1.8906,-1.8905,-1.8902,-1.8901,-1.89,-1.8909,-1.8908,-1.889,-1.8891,-1.8891,-1.8891,0,0,0,0,0,0,0,-1.8955,-1.8954,-1.895,-1.8942,-1.8939,-1.8931,-1.8929,-1.8934,-1.8916,-1.8918,-1.8916,-1.8914,-1.8901,-1.89,-1.89,-1.8908,-1.889,-1.8891,-1.8891,-1.8891,-1.8931,-1.8932,0,0,0,0,0,0,-1.8958,-1.8955,-1.8951,-1.895,-1.8944,-1.8932,-1.893,-1.893,-1.8916,-1.8913,-1.8915,-1.8913,-1.89,-1.8899,-1.8899,-1.8921,-1.8891,-1.8891,-1.8891,-1.893,-1.8931,-1.8933,0,0,0,0,0,0,-1.8958,-1.8958,-1.8951,-1.8952,-1.895,-1.8933,-1.8934,-1.893,-1.893,-1.8914,-1.891,-1.8918,-1.8899,-1.8899,-1.8907,-1.892,-1.8891,-1.8891,-1.8929,-1.8931,-1.8932,-1.8965,0,0,0,0,0,0,-1.8958,-1.8958,-1.8965,-1.8952,-1.895,-1.896,-1.8935,-1.8931,-1.893,-1.8927,-1.8915,-1.8912,-1.8899,-1.8907,-1.8907,-1.892,-1.8891,-1.8928,-1.893,-1.8932,-1.8963,-1.8968,-1.8972,0,0,0,0,0,-1.8958,-1.8976,-1.8966,-1.8966,-1.8959,-1.8961,-1.896,-1.8944,-1.8931,-1.8938,-1.8928,-1.8913,-1.8918,-1.8908,-1.8908,-1.8921,-1.8927,-1.8929,-1.8931,-1.8961,-1.8967,-1.8972,0,0,0,0,0,0,-1.8991,-1.8974,-1.8963,-1.8976,-1.897,-1.8956,-1.8964,-1.8951,-1.8949,-1.8946,-1.8926,-1.8924,-1.8935,-1.8928,-1.8917,-1.8939,-1.892,-1.8923,-1.8943,-1.8948,-1.8952,-1.8954,-1.8891,0,0,0,0,0,-1.9,-1.9003,-1.8987,-1.9001,-1.8998,-1.8982,-1.8982,-1.897,-1.8963,-1.8961,-1.8951,-1.8945,-1.8946,-1.8946,-1.8946,-1.8962,-1.8959,-1.897,-1.8975,-1.8978,-1.8981,-1.8988,-1.8993,-1.894,-1.894,-1.894,0,0,-1.9018,-1.9009,-1.9012,-1.9007,-1.9001,-1.9004,-1.898,-1.8985,-1.8987,-1.8962,-1.8969,-1.8962,-1.8954,-1.8966,-1.8971,-1.8961,-1.8995,-1.8981,-1.8984,-1.8985,-1.8991,-1.8996,-1.9001,-1.8941,-1.8941,-1.8941,0,0,-1.9053,-1.9047,-1.9057,-1.9051,-1.9043,-1.9031,-1.9034,-1.9021,-1.9015,-1.9022,-1.9003,-1.9005,-1.9007,-1.9002,-1.8999,-1.9032,-1.9017,-1.9032,-1.9055,-1.9063,-1.9067,-1.9071,-1.9082,-1.9087,-1.9034,-1.9034,-1.9035,0,-1.9077,-1.9082,-1.9064,-1.907,-1.9068,-1.9045,-1.9055,-1.905,-1.9042,-1.9041,-1.903,-1.9031,-1.9024,-1.9034,-1.9042,-1.9041,-1.9043,-1.9034,-1.9068,-1.9071,-1.9075,-1.9085,-1.909,-1.9036,-1.9036,-1.9036,-1.9036,0,-1.9111,-1.9115,-1.9124,-1.9116,-1.9115,-1.9124,-1.9107,-1.9108,-1.9096,-1.9086,-1.9093,-1.9084,-1.9081,-1.9082,-1.9071,-1.9091,-1.9085,-1.9071,-1.9052,-1.9082,-1.9092,-1.9096,-1.9039,-1.9038,-1.9038,-1.9037,0,0,-1.9168,-1.9149,-1.9153,-1.9149,-1.9137,-1.914,-1.9146,-1.9143,-1.9145,-1.9139,-1.9145,-1.9146,-1.9133,-1.913,-1.9117,-1.9124,-1.915,-1.9109,-1.9109,-1.9117,-1.9172,-1.9183,-1.9188,-1.914,-1.9141,-1.9142,-1.9173,0,-1.92,-1.9211,-1.9195,-1.9209,-1.9212,-1.9189,-1.9195,-1.9188,-1.9179,-1.918,-1.9169,-1.917,-1.9153,-1.9151,-1.9157,-1.9146,-1.9161,-1.9143,-1.9145,-1.9145,-1.9148,-1.9193,-1.9205,-1.9234,-1.9176,-1.9177,-1.9178,0,-1.924,-1.9237,-1.9251,-1.9238,-1.9239,-1.9244,-1.924,-1.9241,-1.9233,-1.9225,-1.9222,-1.9207,-1.9212,-1.9194,-1.9201,-1.9189,-1.9189,-1.9183,-1.9184,-1.9184,-1.9164,-1.9194,-1.9243,-1.9248,-1.9183,-1.9183,-1.9182,0,-1.928,-1.9279,-1.9287,-1.9284,-1.9269,-1.9274,-1.9268,-1.9259,-1.9258,-1.9254,-1.9253,-1.925,-1.9248,-1.9246,-1.923,-1.9218,-1.9239,-1.9219,-1.9233,-1.9234,-1.9239,-1.9239,-1.9289,-1.9238,-1.9238,-1.9238,-1.9238,0,-1.9318,-1.9328,-1.9305,-1.931,-1.932,-1.9301,-1.9311,-1.9303,-1.9295,-1.9298,-1.9278,-1.9282,-1.9261,-1.9262,-1.9249,-1.9257,-1.9257,-1.9251,-1.9247,-1.9253,-1.9254,-1.9253,-1.925,-1.9239,-1.9239,-1.9239,-1.9239,0,-1.9364,-1.9349,-1.9357,-1.9342,-1.9338,-1.9346,-1.9333,-1.9338,-1.9327,-1.9331,-1.9331,-1.9313,-1.9313,-1.9298,-1.9294,-1.9286,-1.9299,-1.9292,-1.9302,-1.93,-1.9315,-1.9314,-1.9366,-1.9372,-1.9318,-1.9318,-1.9319,0,-1.939,-1.9397,-1.9383,-1.9383,-1.9378,-1.9379,-1.9378,-1.936,-1.9359,-1.935,-1.9355,-1.9353,-1.9351,-1.9352,-1.934,-1.9337,-1.933,-1.9348,-1.9329,-1.9334,-1.933,-1.933,-1.933,-1.9352,-1.9353,-1.9354,-1.9354,0,-1.9438,-1.9429,-1.9429,-1.9425,-1.9424,-1.942,-1.9415,-1.9417,-1.9396,-1.9396,-1.9396,-1.9394,-1.9391,-1.9389,-1.9384,-1.9378,-1.9363,-1.936,-1.9363,-1.9369,-1.9374,-1.9372,-1.9313,-1.9359,-1.9359,-1.9358,-1.9358,-1.9358,-1.9474,-1.9479,-1.947,-1.9469,-1.9463,-1.9459,-1.9462,-1.9451,-1.9451,-1.9446,-1.9435,-1.9437,-1.9428,-1.9419,-1.9414,-1.9415,-1.9406,-1.941,-1.9411,-1.9413,-1.9416,-1.9374,-1.9414,-1.9414,-1.9413,-1.9413,-1.9413,0,-1.9521,-1.9513,-1.9513,-1.9506,-1.9506,-1.9491,-1.9485,-1.9485,-1.9487,-1.948,-1.9478,-1.9477,-1.9476,-1.9462,-1.9459,-1.9462,-1.9455,-1.9462,-1.9462,-1.9461,-1.9424,-1.9422,-1.9468,-1.9468,-1.9468,-1.9468,-1.9468,-1.9468,-1.9545,-1.9553,-1.9543,-1.9548,-1.954,-1.9541,-1.9539,-1.9535,-1.9529,-1.9529,-1.9528,-1.9519,-1.9509,-1.9505,-1.9503,-1.9499,-1.9499,-1.9508,-1.9502,-1.9468,-1.9463,-1.9458,-1.9456,-1.9508,-1.9508,-1.9538,-1.9538,-1.9539]}]]